Location: Bowman Observatory
(41.0326°N, 73.6210°W)
Time: 00:08:48
(UTC-04:00)

Cosmos 2298 Rocket - Visible Passes

Search period start: 20 June 2018 00:00
Search period end: 30 June 2018 00:00
Orbit: 777 x 783 km, 74.0° (Epoch: 19 June)

Date Brightness Start Highest point End Pass type
(mag) Time Alt. Az. Time Alt. Az. Time Alt. Az.
24 Jun 6.9 04:33:39 10° ESE 04:35:26 12° E 04:37:14 10° ENE visible
27 Jun 6.1 04:32:34 10° SSE 04:36:51 25° E 04:41:08 10° NE visible
28 Jun 6.5 04:00:32 10° SE 04:03:37 16° E 04:06:44 10° ENE visible
